Total_Precipitation_Accumulation
0.00 0.00 0.01 0.01 0.01 0.02 0.03 0.05 0.14 0.22 0.14 0.16 0.29 0.46 0.68 0.85 0.99 1.06 1.25 1.24 1.42 1.68 1.83 2.19 2.51 2.94 3.37 3.88 4.58 5.13 5.47 5.41 5.15 4.76 4.33 4.01 3.52 3.16 2.83 2.46 2.23 2.02 1.80 1.71
0.01 0.02 0.01 0.02 0.02 0.03 0.05 0.08 0.17 0.21 0.14 0.15 0.30 0.50 0.78 0.87 0.85 0.89 1.11 1.22 1.29 1.48 1.76 2.06 2.56 2.86 3.19 3.65 4.13 4.50 4.43 4.10 3.94 3.86 3.70 3.40 3.34 3.18 2.91 2.66 2.43 2.05 1.83 1.68
0.03 0.03 0.02 0.02 0.04 0.04 0.06 0.08 0.14 0.19 0.22 0.23 0.33 0.66 0.90 0.93 0.84 0.79 0.83 0.95 1.03 1.15 1.36 1.66 2.20 2.51 2.67 3.04 3.32 3.36 3.21 2.97 2.96 2.99 2.88 2.90 3.06 3.09 2.98 2.77 2.48 2.18 1.99 1.85
0.02 0.02 0.03 0.03 0.06 0.05 0.09 0.06 0.07 0.10 0.19 0.41 0.47 0.83 1.09 1.21 1.14 0.92 0.83 0.92 0.96 1.02 1.05 1.32 1.66 1.85 2.07 2.23 2.38 2.41 2.41 2.32 2.30 2.33 2.22 2.07 2.12 2.26 2.41 2.59 2.57 2.52 2.35 2.10
0.03 0.04 0.04 0.05 0.05 0.06 0.06 0.05 0.06 0.09 0.15 0.30 0.42 0.65 1.05 1.32 1.45 1.12 0.89 0.82 0.76 0.86 1.05 1.18 1.25 1.37 1.50 1.52 1.66 1.71 1.92 2.15 2.20 2.17 2.24 2.08 1.79 1.71 1.70 1.79 1.92 1.98 2.01 1.88
0.04 0.05 0.05 0.04 0.04 0.05 0.06 0.10 0.16 0.24 0.37 0.60 0.57 0.62 0.96 1.14 1.25 0.99 0.83 0.80 0.65 0.63 0.79 0.92 1.02 1.08 1.13 1.14 1.29 1.48 1.75 2.07 2.20 2.20 2.11 2.02 1.85 1.78 1.67 1.61 1.59 1.51 1.56 1.53
0.15 0.13 0.09 0.06 0.06 0.07 0.08 0.15 0.48 0.82 1.15 1.18 0.68 0.67 0.89 0.88 0.83 0.85 0.73 0.67 0.66 0.54 0.52 0.52 0.59 0.67 0.73 0.77 0.87 1.13 1.35 1.53 1.69 1.81 1.79 1.68 1.73 1.78 1.65 1.46 1.33 1.23 1.17 1.15
0.18 0.22 0.14 0.09 0.07 0.07 0.08 0.12 0.36 0.60 0.77 0.89 0.72 1.06 1.14 0.84 0.72 0.61 0.50 0.46 0.48 0.38 0.34 0.31 0.35 0.43 0.49 0.54 0.60 0.73 0.99 1.14 1.30 1.41 1.53 1.60 1.72 1.79 1.71 1.75 1.51 1.31 1.14 1.05
0.07 0.10 0.09 0.08 0.08 0.09 0.09 0.08 0.13 0.21 0.35 0.60 0.85 1.07 1.01 0.82 0.79 0.58 0.41 0.34 0.33 0.28 0.23 0.23 0.26 0.32 0.35 0.39 0.47 0.52 0.66 0.85 1.06 1.23 1.38 1.45 1.40 1.38 1.42 1.49 1.48 1.33 1.28 1.15
0.04 0.04 0.06 0.08 0.09 0.10 0.10 0.09 0.10 0.16 0.29 0.46 0.75 1.11 1.17 1.01 0.88 0.70 0.53 0.35 0.27 0.26 0.24 0.23 0.22 0.24 0.25 0.29 0.40 0.51 0.56 0.71 1.03 1.33 1.44 1.31 1.23 1.11 1.17 1.19 1.24 1.31 1.29 1.26
0.04 0.04 0.06 0.08 0.11 0.14 0.14 0.11 0.11 0.14 0.17 0.30 0.64 0.85 0.73 0.75 0.71 0.62 0.53 0.38 0.30 0.27 0.25 0.24 0.19 0.19 0.25 0.26 0.34 0.52 0.63 0.77 1.04 1.35 1.51 1.44 1.26 1.19 1.20 1.10 1.04 1.14 1.22 1.25
0.05 0.04 0.06 0.11 0.16 0.16 0.14 0.14 0.14 0.20 0.19 0.22 0.35 0.56 0.42 0.50 0.60 0.55 0.39 0.29 0.24 0.19 0.22 0.20 0.14 0.14 0.18 0.20 0.31 0.62 0.92 1.25 1.41 1.65 1.86 1.79 1.43 1.24 1.15 0.99 0.92 1.01 1.16 1.23
0.04 0.05 0.11 0.28 0.31 0.23 0.16 0.13 0.14 0.15 0.15 0.16 0.35 0.53 0.40 0.45 0.53 0.42 0.30 0.26 0.28 0.24 0.22 0.23 0.16 0.15 0.16 0.17 0.22 0.39 0.52 0.83 1.14 1.44 1.70 1.61 1.32 1.13 1.03 1.01 1.00 1.08 1.18 1.22
0.06 0.05 0.09 0.25 0.31 0.31 0.25 0.19 0.16 0.13 0.15 0.17 0.25 0.46 0.45 0.43 0.38 0.33 0.26 0.27 0.33 0.33 0.28 0.25 0.23 0.22 0.20 0.20 0.20 0.29 0.36 0.44 0.62 0.98 1.24 1.25 1.11 1.03 0.98 1.02 1.04 1.03 1.06 1.11
0.07 0.06 0.05 0.06 0.14 0.21 0.22 0.20 0.17 0.13 0.11 0.22 0.26 0.33 0.39 0.47 0.39 0.32 0.29 0.25 0.27 0.31 0.28 0.23 0.25 0.32 0.34 0.36 0.33 0.33 0.36 0.38 0.52 0.87 1.06 1.04 0.98 0.98 0.94 0.91 0.96 1.02 1.10 1.16
0.10 0.10 0.09 0.10 0.13 0.15 0.16 0.19 0.16 0.11 0.09 0.09 0.14 0.27 0.30 0.39 0.40 0.36 0.32 0.26 0.32 0.37 0.32 0.28 0.25 0.33 0.39 0.42 0.42 0.38 0.38 0.39 0.51 0.78 0.99 1.01 0.95 0.89 0.84 0.87 0.99 1.15 1.23 1.34
0.16 0.14 0.14 0.15 0.18 0.17 0.24 0.20 0.16 0.14 0.12 0.13 0.21 0.31 0.30 0.35 0.41 0.42 0.45 0.42 0.35 0.39 0.34 0.27 0.28 0.37 0.50 0.49 0.48 0.49 0.44 0.43 0.57 0.79 0.96 1.05 1.01 1.01 0.98 0.95 1.10 1.28 1.36 1.42
0.29 0.27 0.25 0.21 0.25 0.35 0.26 0.20 0.21 0.23 0.25 0.26 0.28 0.31 0.34 0.40 0.41 0.50 0.57 0.52 0.40 0.40 0.40 0.40 0.37 0.42 0.52 0.51 0.53 0.57 0.56 0.57 0.69 0.87 1.03 1.09 1.06 1.10 1.18 1.19 1.26 1.43 1.58 1.59
0.34 0.39 0.35 0.30 0.33 0.39 0.36 0.28 0.32 0.36 0.39 0.40 0.43 0.38 0.42 0.43 0.47 0.57 0.53 0.51 0.52 0.49 0.48 0.53 0.56 0.53 0.57 0.59 0.61 0.63 0.66 0.72 0.83 0.89 1.03 1.14 1.22 1.32 1.35 1.38 1.50 1.66 1.77 1.73
0.36 0.45 0.48 0.43 0.50 0.55 0.55 0.40 0.34 0.40 0.67 0.52 0.53 0.53 0.47 0.49 0.68 0.72 0.55 0.51 0.50 0.48 0.50 0.52 0.61 0.64 0.68 0.68 0.72 0.78 0.85 0.97 1.13 1.20 1.26 1.44 1.63 1.80 1.87 1.89 1.94 1.97 2.02 1.93
0.63 0.60 0.58 0.63 0.73 0.66 0.51 0.44 0.39 0.74 1.03 0.76 0.73 0.70 0.61 0.71 0.78 0.74 0.59 0.50 0.48 0.46 0.46 0.48 0.52 0.61 0.66 0.69 0.84 1.02 1.09 1.21 1.35 1.46 1.53 1.74 2.06 2.22 2.17 2.14 2.09 2.05 2.06 2.04
0.82 0.78 0.78 0.83 1.03 1.05 0.58 0.56 0.82 1.03 0.88 0.90 0.91 0.87 0.81 0.79 0.82 0.79 0.73 0.55 0.46 0.43 0.43 0.45 0.49 0.54 0.65 0.77 1.00 1.28 1.38 1.36 1.45 1.63 1.83 2.04 2.28 2.24 2.13 2.27 2.21 2.19 2.24 2.20
0.82 0.89 0.97 1.03 1.19 1.00 0.70 0.82 1.00 0.98 0.93 0.93 0.92 0.88 0.78 0.74 0.84 0.78 0.67 0.60 0.46 0.40 0.43 0.48 0.53 0.62 0.71 0.89 1.22 1.51 1.58 1.63 1.66 1.79 1.95 2.06 2.17 2.33 2.46 2.51 2.43 2.35 2.31 2.27
0.86 0.82 0.98 1.14 1.23 1.06 0.89 0.89 0.88 0.93 0.93 0.87 0.79 0.75 0.77 0.72 0.70 0.67 0.56 0.49 0.46 0.45 0.47 0.53 0.61 0.75 0.93 1.09 1.37 1.50 1.55 1.58 1.62 1.64 1.67 1.79 1.97 2.10 2.19 2.42 2.50 2.44 2.30 2.24
0.94 0.86 1.03 1.34 1.45 1.29 1.17 1.01 0.89 0.91 0.87 0.86 0.85 0.78 0.72 0.67 0.61 0.53 0.47 0.44 0.44 0.44 0.49 0.60 0.69 0.78 0.91 1.08 1.26 1.30 1.41 1.49 1.60 1.59 1.56 1.57 1.63 1.76 1.85 1.97 2.10 2.11 2.13 1.96
0.88 0.94 1.08 1.40 1.27 1.20 1.31 1.13 0.97 0.91 0.91 0.98 1.05 1.03 0.84 0.69 0.64 0.59 0.51 0.46 0.41 0.41 0.49 0.60 0.71 0.81 0.91 1.05 1.24 1.31 1.39 1.47 1.54 1.54 1.48 1.48 1.51 1.60 1.68 1.73 1.69 1.54 1.49 1.33